KD8PH Weather Reports


time (UTC)temp
C
wind
direction
speed
KPH
gust
KPH
rain 1hr
cm
rain 24hr
cm
rain mn
cm
humidity
%
barometer
mb
20260906083021 25 0.0 0.0 0.00 0.08 0.00 79 1011.5
20260906082021 25 0.0 0.0 0.00 0.08 0.00 81 1011.6
20260906081022 25 0.0 0.0 0.00 0.08 0.00 82 1011.3
20260906080021 25 0.0 0.0 0.00 0.08 0.00 83 1011.5
20260906075021 25 0.0 0.0 0.00 0.08 0.00 86 1011.3
20260906074022 25 0.0 0.0 0.00 0.08 0.00 86 1011.3
20260906073021 25 0.0 0.0 0.00 0.08 0.00 86 1011.3
20260906072021 25 0.0 0.0 0.00 0.08 0.00 87 1011.3
20260906071021 25 0.0 0.0 0.00 0.08 0.00 88 1011.4
20260906070021 25 0.0 0.0 0.00 0.08 0.00 88 1011.4
20260906065021 25 0.0 0.0 0.00 0.08 0.00 89 1011.3
20260906064021 25 0.0 0.0 0.00 0.08 0.00 88 1011.1
20260906063021 25 0.0 0.0 0.00 0.08 0.00 88 1011.0
20260906062021 25 0.0 0.0 0.00 0.08 0.00 88 1010.9
20260906061021 26 0.0 0.0 0.00 0.08 0.00 88 1011.1
20260906060021 25 0.0 0.0 0.00 0.08 0.00 88 1011.0
20260906055021 25 0.0 0.0 0.00 0.08 0.00 88 1011.0
20260906054021 26 0.0 0.0 0.00 0.08 0.00 87 1011.0
20260906053023 26 0.0 0.0 0.00 0.08 0.00 87 1010.9
20260906052023 26 0.0 0.0 0.00 0.08 0.00 88 1011.0
20260906051023 26 0.0 0.0 0.00 0.08 0.00 87 1010.9
20260906050023 26 0.0 0.0 0.00 0.08 0.08 87 1011.1
20260906045023 26 0.0 0.0 0.00 0.08 0.08 86 1011.2
20260906044023 26 0.0 0.0 0.00 0.08 0.08 85 1011.4
20260906043023 27 0.0 0.0 0.00 0.08 0.08 85 1011.2
20260906042022 26 0.0 0.0 0.00 0.08 0.08 86 1011.2
20260906041027 26 0.0 0.0 0.00 0.08 0.08 85 1011.3
20260906040022 26 0.0 0.0 0.00 0.08 0.08 85 1011.2
20260906035022 26 0.0 0.0 0.00 0.08 0.08 85 1011.3
20260906034023 26 0.0 0.0 0.00 0.08 0.08 85 1011.2
20260906033022 26 0.0 0.0 0.00 0.08 0.08 85 1011.1
20260906032022 26 0.0 0.0 0.00 0.08 0.08 84 1011.0
20260906031022 26 0.0 0.0 0.00 0.08 0.08 84 1011.1
20260906030023 27 0.0 0.0 0.00 0.08 0.08 81 1011.1
20260906025023 27 0.0 0.0 0.00 0.08 0.08 82 1011.0
20260906024022 27 0.0 0.0 0.00 0.08 0.08 80 1010.7
20260906023023 27 0.0 0.0 0.00 0.08 0.08 79 1010.8
20260906022022 27 0.0 0.0 0.00 0.08 0.08 81 1010.7
20260906021022 27 0.0 0.0 0.00 0.08 0.08 83 1010.6
20260906020022 27 0.0 0.0 0.00 0.08 0.08 83 1010.7
20260906015029 27 0.0 0.0 0.00 0.08 0.08 84 1010.8
20260906014022 27 0.0 0.0 0.00 0.08 0.08 84 1010.5
20260906013022 27 0.0 0.0 0.00 0.08 0.08 84 1010.4
20260906012028 27 0.0 0.0 0.00 0.08 0.08 84 1010.0
20260906011023 27 0.0 0.0 0.00 0.08 0.08 83 1009.8
20260906010022 27 0.0 0.0 0.00 0.08 0.08 82 1009.6
20260906005024 27 0.0 0.0 0.00 0.08 0.08 81 1009.4
20260906004022 27 0.0 0.0 0.00 0.08 0.08 81 1009.0
20260906003022 27 0.0 0.0 0.00 0.08 0.08 82 1009.1
20260906002022 27 0.0 0.0 0.00 0.08 0.08 83 1009.6
20260906001024 28 0.0 0.0 0.00 0.08 0.08 82 1009.5
20260906000022 27 0.0 0.0 0.00 0.08 0.08 77 1009.2
20260905235022 28 0.0 0.0 0.00 0.08 0.08 81 1009.4
20260905234022 28 0.0 0.0 0.00 0.08 0.08 78 1009.5
20260905233022 29 0.0 0.0 0.00 0.08 0.08 75 1009.5
20260905232022 29 0.0 0.0 0.00 0.08 0.08 69 1009.3
20260905231022 29 0.0 0.0 0.08 0.08 0.08 69 1009.3
20260905230022 29 0.0 0.0 0.08 0.08 0.08 69 1009.2
20260905225022 29 0.0 0.0 0.08 0.08 0.08 70 1009.2
20260905224022 29 0.0 0.0 0.08 0.08 0.08 66 1009.1
20260905223021 29 0.0 0.0 0.08 0.08 0.08 63 1009.1
20260905222021 30 23 4.8 24.1 0.08 0.08 0.08 52 1009.1
20260905221021 32 0.0 0.0 0.00 0.00 0.00 60 1009.5
20260905220024 33 0.0 0.0 0.00 0.00 0.00 57 1009.8
20260905215022 36 0.0 0.0 0.00 0.00 0.00 50 1009.6
20260905214022 36 0.0 0.0 0.00 0.00 0.00 52 1009.2
20260905213021 36 0.0 0.0 0.00 0.00 0.00 54 1009.3
20260905212029 36 0.0 0.0 0.00 0.00 0.00 55 1009.3
20260905211021 35 0.0 0.0 0.00 0.00 0.00 55 1009.3
20260905210022 35 0.0 0.0 0.00 0.00 0.00 54 1009.2
20260905205021 35 0.0 0.0 0.00 0.00 0.00 59 1009.2
20260905204021 35 0.0 0.0 0.00 0.00 0.00 58 1009.4
20260905203021 35 0.0 0.0 0.00 0.00 0.00 58 1009.5
20260905202022 35 0.0 0.0 0.00 0.00 0.00 56 1009.6
20260905201021 35 0.0 0.0 0.00 0.00 0.00 56 1010.0
20260905200022 34 0.0 0.0 0.00 0.00 0.00 57 1010.1
20260905195021 35 0.0 0.0 0.00 0.00 0.00 56 1010.3
20260905194021 35 0.0 0.0 0.00 0.00 0.00 56 1010.4
20260905193021 35 0.0 0.0 0.00 0.00 0.00 56 1010.4
20260905192021 35 0.0 0.0 0.00 0.00 0.00 55 1010.5
20260905191027 34 0.0 0.0 0.00 0.00 0.00 57 1010.7
20260905190021 34 0.0 0.0 0.00 0.00 0.00 60 1010.8
20260905185021 33 0.0 0.0 0.00 0.00 0.00 59 1011.0
20260905184021 33 0.0 0.0 0.00 0.00 0.00 61 1011.1
20260905183021 33 0.0 0.0 0.00 0.00 0.00 61 1011.3
20260905182021 33 0.0 0.0 0.00 0.00 0.00 60 1011.4
20260905181021 33 0.0 0.0 0.00 0.00 0.00 63 1011.7
20260905180021 33 0.0 0.0 0.00 0.00 0.00 67 1011.7
20260905175021 33 0.0 0.0 0.00 0.00 0.00 65 1011.7
20260905174021 32 0.0 0.0 0.00 0.00 0.00 66 1011.8
20260905173021 32 0.0 0.0 0.00 0.00 0.00 66 1011.9
20260905172021 32 0.0 0.0 0.00 0.00 0.00 71 1012.1
20260905171024 32 0.0 0.0 0.00 0.00 0.00 71 1012.1
20260905170023 31 0.0 0.0 0.00 0.00 0.00 75 1012.3
20260905165023 31 0.0 0.0 0.00 0.00 0.00 74 1012.4
20260905164023 31 0.0 0.0 0.00 0.00 0.00 75 1012.4
20260905163023 31 0.0 0.0 0.00 0.00 0.00 78 1012.6
20260905162028 30 0.0 0.0 0.00 0.00 0.00 78 1012.8
20260905161022 30 0.0 0.0 0.00 0.00 0.00 78 1012.9
20260905160022 30 0.0 0.0 0.00 0.00 0.00 78 1012.9
20260905155023 30 0.0 0.0 0.00 0.00 0.00 79 1013.0
20260905154023 30 0.0 0.0 0.00 0.00 0.00 80 1013.1
20260905153023 29 0.0 0.0 0.00 0.00 0.00 81 1013.1
20260905152022 29 0.0 0.0 0.00 0.00 0.00 81 1013.2
20260905151023 28 0.0 0.0 0.00 0.00 0.00 83 1013.2
20260905150023 28 0.0 0.0 0.00 0.00 0.00 83 1013.1
20260905145022 28 0.0 0.0 0.00 0.00 0.00 84 1013.1
20260905144022 28 0.0 0.0 0.00 0.00 0.00 84 1013.2
20260905143022 28 0.0 0.0 0.00 0.00 0.00 85 1013.3
20260905142022 27 0.0 0.0 0.00 0.00 0.00 85 1013.3
20260905141022 27 0.0 0.0 0.00 0.00 0.00 86 1013.4
20260905140022 27 0.0 0.0 0.00 0.00 0.00 85 1013.4
20260905135022 27 0.0 0.0 0.00 0.00 0.00 86 1013.5
20260905134022 27 0.0 0.0 0.00 0.00 0.00 86 1013.5
20260905133022 27 0.0 0.0 0.00 0.00 0.00 87 1013.7
20260905132026 27 0.0 0.0 0.00 0.00 0.00 87 1013.7
20260905131022 27 0.0 0.0 0.00 0.00 0.00 88 1013.9
20260905130024 27 0.0 0.0 0.00 0.00 0.00 88 1013.8
20260905125022 26 0.0 0.0 0.00 0.00 0.00 89 1013.7
20260905124022 26 0.0 0.0 0.00 0.00 0.00 90 1013.7
20260905123022 25 0.0 0.0 0.00 0.00 0.00 90 1013.6
20260905122023 25 0.0 0.0 0.00 0.00 0.00 90 1013.6
20260905121022 25 0.0 0.0 0.00 0.00 0.00 91 1013.6
20260905120022 25 0.0 0.0 0.00 0.00 0.00 91 1013.5
20260905115022 25 0.0 0.0 0.00 0.00 0.00 91 1013.3
20260905114022 25 0.0 0.0 0.00 0.00 0.00 91 1013.3
20260905113031 24 0.0 0.0 0.00 0.00 0.00 91 1013.1
20260905112022 24 0.0 0.0 0.00 0.00 0.00 91 1013.1
20260905111022 24 0.0 0.0 0.00 0.00 0.00 90 1012.8
20260905110022 24 0.0 0.0 0.00 0.00 0.00 90 1012.7
20260905105022 24 0.0 0.0 0.00 0.00 0.00 90 1012.6
20260905104022 24 0.0 0.0 0.00 0.00 0.00 90 1012.5
20260905103022 24 0.0 0.0 0.00 0.00 0.00 90 1012.3
20260905102022 25 0.0 0.0 0.00 0.00 0.00 90 1012.1
20260905101022 25 0.0 0.0 0.00 0.00 0.00 90 1012.3
20260905100027 25 0.0 0.0 0.00 0.00 0.00 90 1012.3
20260905095022 25 0.0 0.0 0.00 0.00 0.00 90 1012.3
20260905094022 25 0.0 0.0 0.00 0.00 0.00 90 1012.5
20260905093022 25 0.0 0.0 0.00 0.00 0.00 90 1012.3
20260905092022 25 0.0 0.0 0.00 0.00 0.00 90 1012.3
20260905091022 25 0.0 0.0 0.00 0.00 0.00 90 1012.1
20260905090022 25 0.0 0.0 0.00 0.00 0.00 89 1012.0
20260905085022 25 0.0 0.0 0.00 0.00 0.00 89 1012.0
20260905084022 25 0.0 0.0 0.00 0.00 0.00 89 1012.0